Location: San Gennaro Vesuviano
(40.8833°N, 14.5333°E)
Time: 22:43:01
(UTC+00:00)

COSMOS 2455 - Pass Details

Date: 22 April 2021
Orbit: 902 x 907 km, 67.1° (Epoch: 10 May)

Event Time Altitude Azimuth Distance (km) Brightness Sun altitude
Rises 19:38:38 0° 196° (SSW) 3,513 5.7 -19.2°
Reaches altitude 10° 19:41:09 10° 193° (SSW) 2,577 5.0 -19.6°
Maximum altitude 19:47:01 60° 114° (ESE) 1,027 2.8 -20.5°
Drops below altitude 10° 19:52:56 10° 36° (NE) 2,596 5.3 -21.3°
Sets 19:55:29 0° 33° (NNE) 3,541 6.0 -21.7°
